Hourly Data Report for October 04, 2015

All times are specified in Local Standard Time (LST). Add 1 hour to adjust for Daylight Saving Time where and when it is observed.

POND INLET A
NUNAVUT

72°41'22.000" N
77°58'08.000" W
61.60 m
2403206
71095
YIO

Download Data

Hourly Data (October 2015)
Hourly Data Report for October 4, 2015
Temp Definition
°C
Dew Point Temp Definition
°C
Rel Hum Definition
%
Wind Dir Definition
10's deg

Wind Spd Definition
km/h
Visibility Definition
km
Stn Press Definition
kPa
Hmdx Definition


Wind Chill Definition


Weather Definition


TIME
00:00 Legend Double Dagger -2.1 -5.0 80 25 26 14.5 101.25   -9 Snow
01:00 Legend Double Dagger -1.9 -5.5 76 25 24 16.1 101.22   -8 LegendNANA
02:00 Legend Double Dagger -2.2 -5.0 81 26 28 16.1 101.22   -9 Snow
03:00 Legend Double Dagger -2.4 -5.2 81 25 30 16.1 101.24   -10 LegendNANA
04:00 Legend Double Dagger -2.4 -5.7 78 24 22 16.1 101.25   -9 LegendNANA
05:00 Legend Double Dagger -2.8 -4.3 90 28 13 4.8 101.26   -7 Snow
06:00 Legend Double Dagger -3.4 -4.1 95 26 5 1.6 101.25   -5 Snow
07:00 Legend Double Dagger -4.0 -5.1 92 16 15 16.1 101.23   -9 Snow
08:00 Legend Double Dagger -3.5 -5.8 84 19 18 16.1 101.21   -9 Snow
09:00 Legend Double Dagger -3.7 -4.4 95 20 18 4.0 101.20   -10 Snow
10:00 Legend Double Dagger -3.6 -4.8 92 17 17 11.3 101.18   -9 Snow
11:00 Legend Double Dagger -3.1 -5.3 85 17 17 16.1 101.14   -9 Snow
12:00 Legend Double Dagger -2.6 -6.1 77 19 18 16.1 101.11   -8 Snow
13:00 Legend Double Dagger -2.8 -5.8 80 19 17 16.1 101.09   -8 LegendNANA
14:00 Legend Double Dagger -2.8 -5.5 82 18 17 16.1 101.06   -8 LegendNANA
15:00 Legend Double Dagger -3.2 -6.0 81 18 17 16.1 101.03   -9 LegendNANA
16:00 Legend Double Dagger -3.4 -6.5 79 19 18 16.1 100.98   -9 LegendNANA
17:00 Legend Double Dagger -2.6 -6.5 75 19 18 16.1 100.95   -8 LegendNANA
18:00 Legend Double Dagger -2.7 -5.9 79 19 17 16.1 100.91   -8 Snow
19:00 Legend Double Dagger -2.8 -5.5 82 20 24 16.1 100.86   -9 Snow
20:00 Legend Double Dagger -2.6 -5.1 83 21 26 16.1 100.82   -9 Snow
21:00 Legend Double Dagger -2.9 -5.1 85 20 24 16.1 100.77   -10 Snow
22:00 Legend Double Dagger -2.5 -4.9 84 21 22 16.1 100.72   -9 Snow
23:00 Legend Double Dagger -2.6 -4.8 85 21 22 16.1 100.68   -9 Snow

Notes on Data Quality.

Legend

  • E = Estimated
  • M = Missing
  • NA = Not Available
  • ‡ = Partner data that is not subject to review by the National Climate Archives
Date modified: